Regional Weather Roundup
Issued by NWS

Home | Current Version | Previous Version | Graphics & Text | Print | Product List | Glossary On
Versions: 1 2 3 4 5 6 7 8 9 10 11 12 13 14 15 16 17 18 19 20 21 22 23 24 25 26 27 28 29 30 31 32 33 34 35 36 37 38 39 40 41 42 43 44 45 46 47 48 49 50
000
ASUS45 KCYS 090910
RWRWY

WYOMING REGIONAL WEATHER ROUNDUP
NATIONAL WEATHER SERVICE CHEYENNE WY
300 AM MDT WED JUL 09 2014

NOTE:  "FAIR" INDICATES FEW OR NO CLOUDS BELOW 12,000 FEET
WITH NO SIGNIFICANT WEATHER AND/OR OBSTRUCTIONS TO VISIBILITY.

WYZ001-091000-
YELLOWSTONE NATIONAL PARK

CITY           SKY/WX    TMP DP  RH WIND       PRES   REMARKS
LK YELLOWSTONE   N/A     44  39  82 CALM      30.30F
W YELLOWSTONE  NOT AVBL

$$
WYZ002>013-054>058-071-098>099-091000-
NORTHERN WYOMING

CITY           SKY/WX    TMP DP  RH WIND       PRES   REMARKS
JACKSON        CLEAR     52  43  71 NE3       30.19S
CODY           CLEAR     63  46  55 SW6       30.09F
GREYBULL       CLEAR     64  50  60 CALM      30.01S
WORLAND        CLEAR     60  45  57 NE3       30.01F
SHERIDAN       MOCLDY    56  50  80 S7        30.05F
BUFFALO        PTCLDY    60  46  59 S6        30.11F
GILLETTE       MOCLDY    62  49  62 S7        30.09S
HULETT         FAIR      57  46  67 MISG      30.11
NEWCASTLE      FAIR      63  45  51 SE3       30.11

$$
WYZ014>020-022>026-101>103-091000-
CENTRAL WYOMING

CITY           SKY/WX    TMP DP  RH WIND       PRES   REMARKS
BIG PINEY      CLEAR     51  38  60 S3        30.22S
PINEDALE       SUNNY     48  45  87 NW3       30.23S
DUBOIS         FAIR      54  41  62 NW8       30.25S
LANDER         CLEAR     64  44  48 W7        30.10S
RIVERTON       CLEAR     65  42  43 NE9       30.10S
CASPER         CLEAR     55  44  66 NW7       30.11S
DOUGLAS        CLEAR     61  49  64 SE8       30.09F

$$
WYZ021-027>030-104>119-091000-
SOUTHERN WYOMING

CITY           SKY/WX    TMP DP  RH WIND       PRES   REMARKS
EVANSTON       CLEAR     62  37  39 SE7       30.24F
FORT BRIDGER   FAIR      71  33  25 SW9       30.24F
ROCK SPRINGS   PTCLDY    68  32  26 SW14      30.18S
DIXON          FAIR      57  38  48 SE5       30.21S
RAWLINS          N/A     54  45  71 N5        30.18F
SARATOGA       FAIR      63  43  48 S8        30.21F
LARAMIE        CLEAR     55  52  89 S10       30.23F
CHEYENNE       CLEAR     58  54  86 SW6       30.18F
TORRINGTON     CLEAR     60  49  66 E9        30.06F

$$



USA.gov is the U.S. government's official web portal to all federal, state and local government web resources and services.